Regional Weather Roundup
Issued by NWS Austin/San Antonio, TX

Home | Current Version | Previous Version | Text Only | Print | Product List | Glossary On
Versions: 1 2 3 4 5 6 7 8 9 10 11 12 13 14 15 16 17 18 19 20 21 22 23 24 25 26 27 28 29 30 31 32 33 34 35 36 37 38 39 40 41 42 43 44 45 46 47 48 49 50
000
ASUS44 KEWX 211110
RWREWX
SOUTH TEXAS REGIONAL WEATHER ROUNDUP
NATIONAL WEATHER SERVICE AUSTIN/SAN ANTONIO TX
600 AM CDT WED OCT 21 2020

NOTE: "FAIR" INDICATED FEW OR NO CLOUDS BELOW 12,000 FEET WITH NO
SIGNIFICANT WEATHER AND/OR OBSTRUCTIONS TO VISIBILITY.

* - THESE STATIONS ARE NOT NWS OR FAA STATIONS...AND ARE NOT SUBJECT
    TO NWS AND FAA QUALITY CONTROL.

TXZ171-172-183>190-211200-
TEXAS HILL COUNTRY AND EDWARDS PLATEAU

CITY           SKY/WX    TMP DP  RH WIND       PRES   REMARKS
JUNCTION       CLEAR     67  63  87 CALM      30.02R
*LLANO         CLOUDY    64  63  94 E3        30.02R
BURNET         MOCLDY    70  67  90 S6        30.05R
*HORSESHOE BAY PTCLDY    64  63  94 CALM      30.03S
*LAGO VISTA    CLOUDY    70  69  96 S5        30.04R
*KERRVILLE     CLOUDY    69  66  89 SE8       30.03S
*FREDERICKSBRG MOCLDY    67  65  95 SE3       30.04S
*ROCKSPRINGS   MOCLDY    66  63  88 SE17G23   30.06R
*BOERNE        CLOUDY    68  68 100 S5        30.04S
*CASTROVILLE   CLOUDY    74  73  93 CALM      30.02S FOG
HONDO          CLOUDY    72  68  87 SE7       30.00S
*UVALDE        CLOUDY    71  69  93 E6        30.01R
DEL RIO        PTCLDY    73  66  78 SE18      29.93F
*LAUGHLIN AFB  CLOUDY    71  66  84 SE12      29.96R
*SPOFFORD      CLOUDY   N/A N/A N/A SE13      29.91R
*EAGLE PASS    NOT AVBL
CARRIZO SPRGS  CLOUDY    72  72 100 SE6       29.95S
*FAITH RANCH   MOCLDY    73  70  88 SE10G17   29.97R
$$

TXZ173-191>194-202-209-217>225-228-211200-
CENTRAL AND SOUTH CENTRAL TEXAS

CITY           SKY/WX    TMP DP  RH WIND       PRES   REMARKS
GEORGETOWN     CLOUDY    71  69  93 CALM      30.04R
*TAYLOR        PTCLDY    71  68  90 SE6       30.01S
AUSTIN/BERGSTM MOCLDY    70  69  97 CALM      30.01R
AUSTIN/MABRY   CLOUDY    74  69  85 S6        30.02R
*PFLUGERVILLE  PTCLDY    70  68  94 CALM      30.02S
SAN MARCOS     MOCLDY    70  70 100 CALM      30.02S
NEW BRAUNFELS  MOCLDY    74  70  87 SE3       30.00R
*RANDOLPH AFB  CLOUDY    72  71  95 CALM      30.00R
*SEGUIN        MOCLDY    70  68  94 CALM      30.04R
SAN ANTONIO    CLOUDY    74  70  87 SE8       30.01R
STINSON FIELD  CLOUDY    72  71  97 E5        29.98S
*KELLY FIELD   MOCLDY    73  71  93 E6        29.98S
*PLEASANTON    CLOUDY    74  72  95 E3        29.99S FOG
*KENEDY        CLOUDY    73  72  97 E3        29.99S FOG
*LA GRANGE     CLOUDY    75  75 100 CALM      30.00R
*GIDDINGS      MOCLDY    74  72  93 CALM      30.03R
*GONZALES      CLOUDY    74  74 100 SE3       30.00R
$$

TXZ163>164-176>182-195>201-210>213-226-227-235-211200-
SOUTHEAST TEXAS

CITY           SKY/WX    TMP DP  RH WIND       PRES   REMARKS
COLLEGE STN    FOG       71  70  96 E3        30.03R VSB 3/4
*BRYAN         FOG       70  70 100 CALM      30.05R VSB 1/4
*CALDWELL      CLOUDY    70 N/A N/A CALM      30.03R HAZE
*CROCKETT      NOT AVBL
*BRENHAM       FOG       72  72 100 CALM      30.03R VSB 1/2
HUNTSVILLE     CLOUDY    72  69  90 CALM      30.04R FOG
CONROE         CLOUDY    72  71  97 CALM      30.03S FOG
HOUSTON BUSH   FOG       72  71  97 NE5       30.01R VSB<1/4
HOUSTON HOBBY  PTCLDY    74  71  91 NE6       30.00R
*HOUSTON SW AP PTCLDY    69  69 100 CALM      30.01S FOG
PEARLAND       PTCLDY    71  67  87 CALM      30.02R FOG
HOUSTON HOOKS  FOG       72  69  90 CALM      30.02R VSB 3/4
ELLINGTON FLD  CLOUDY    70  70 100 CALM      30.00R FOG
SUGAR LAND     MOCLDY    71  71 100 NE3       30.00S
*HOUSTON EXEC  MOCLDY    70  70 100 E6        30.02S FOG
*CLEVELAND MUN FOG       69  69 100 CALM      30.04R VSB 1/4
*WHARTON       FOG       71  70  97 NE3       30.00S VSB 1/2
*COLUMBUS      CLOUDY    72  72  99 E6        30.02S FOG
*EAGLE LAKE    FOG       71  71  98 NE3       30.01R VSB 1/4
$$

TXZ214>216-236>238-211200-
THE UPPER TEXAS COAST

CITY           SKY/WX    TMP DP  RH WIND       PRES   REMARKS
*ORANGE        FOG       69  67  94 N3        30.04R VSB 1/4
PORT ARTHUR    CLEAR     70  70 100 N5        30.01R FOG
GALVESTON      PTCLDY    76  72  87 E5        30.00R
ANGLETON       FOG       70  69  97 N3        29.99S VSB 1/2
*BAY CITY      PTCLDY    70  70 100 NE3       29.99R FOG
PALACIOS       PTCLDY    69  69 100 NE5       29.97S FOG
$$

TXZ229>234-239>247-211200-
TEXAS COASTAL BEND AND RIO GRANDE PLAINS

CITY           SKY/WX    TMP DP  RH WIND       PRES   REMARKS
VICTORIA       CLOUDY    70  69  97 NE5       29.98S FOG
*BEEVILLE      NOT AVBL
ROCKPORT       CLEAR     76  73  91 SE6       29.96R
*PORT ARANSAS  MOCLDY    79  73  82 E8        29.97S
*PORT LAVACA   CLEAR     73  69  87 CALM      29.97R FOG
*INGLESIDE     NOT AVBL
CORPUS CHRISTI PTCLDY    74  72  93 E6        29.95S
CORPUS NAS     NOT AVBL
*ROBSTOWN      CLEAR     73  71  93 E6        29.96R
ALICE          MOCLDY    71  70  96 E5        29.95R FOG
KINGSVILLE NAS CLEAR     73  70  90 NE5       29.95R
COTULLA        CLOUDY    74  70  87 E5        29.97R
LAREDO         CLOUDY    74  72  93 SE13      29.95R
$$

TXZ248>255-211200-
DEEP SOUTH TEXAS

CITY           SKY/WX    TMP DP  RH WIND       PRES   REMARKS
BROWNSVILLE    CLEAR     74  71  91 E5        29.92R
PORT ISABEL      N/A    N/A N/A N/A MISG      29.92R
HARLINGEN      CLEAR     71  71 100 CALM      29.93R
*HEBBRONVILLE  FOG       71  70  96 S5        29.96F VSB 1/4
MCALLEN        PTCLDY    79  71  76 E3        29.93S
*WESLACO       CLOUDY    70  68  95 CALM      29.93R FOG
FALFURRIAS     CLOUDY    66  66 100 CALM      29.95R VSB 1/2
EDINBURG       MOCLDY    61  59  95 CALM      29.95R
*ZAPATA        NOT AVBL
$$

TXZ213>215-236>238-242>244-246-247-251-254-255-211200-
CMAN STATIONS

STATION/POSITION TIME  TEMP    WIND        PRES    WAVE
                       AIR SEA DIR/SP/G            HT/PER
                 (UTC) (F)     (DEG/KT/KT) (MB)    (FT/S)
SEA RIM ST PARK  1100   72      40/  5/  5 1016.3
NORTH JETTY/GLS  1024   81 77   90/  6/  7 1014.5
EAGLE POINT      1024   75 78   40/  6/  7 1015.2
MORGANS POINT    1024   73 79   40/  4/  5 1015.8
PORT O`CONNOR    1024   78 82  130/  6/  7 1014.3
PORT ARANSAS     1100   79 80  100/ 10/ 11 1014.2
MALAQUITE BEACH  1030   80      90/ 10/ 11   N/A
BAFFIN BAY       1030   78 81   90/  6/  8 1013.4
PORT ISABEL      1030   79 82  110/  5/  7 1015.0
$$




USA.gov is the U.S. government's official web portal to all federal, state and local government web resources and services.